User: anonymous   Login
Location: Unspecified
(0.0000°N, 0.0000°E)
Time: 06:19:23
(UTC+00:00)
Language:

LQSAT - Orbit

View from above orbital plane
View from above orbital plane
View from above satellite
View from above satellite

Ground track
Ground track

The orbit data is extracted from the following two-line orbital elements,

1 40958U 15057A   19083.84091694  .00000005  00000-0  84825-5 0  9993
2 40958  97.9068 155.3214 0018800 152.3535 207.8670 14.73070354186165
Epoch (UTC): 24 March 2019 20:10:55
Eccentricity: 0.0018800
inclination: 97.9068°
perigee height: 638 km
apogee height: 664 km
right ascension of ascending node: 155.3214°
argument of perigee: 152.3535°
revolutions per day: 14.73070354
mean anomaly at epoch: 207.8670°
orbit number at epoch: 18616

The dashed part of the orbit path shows where the satellite is in the earth's shadow,  

DLR